Terug naar catalogus

THOR AGENA D R/B

ActiefLEO
NORAD 1245·ROCKET BODY·🇺🇸 United States

Gelanceerd Mar 9, 1965 vanaf Vandenberg Space Force Base

Loading…

Volgende Passages (komende 24 uur)

TLE

VersSource: Space-Track

Epoch: Sep 14, 2026, 11:09 UTC

1 01245U 65016J   26257.46484134  .00000052  00000-0  73754-4 0  9993
2 01245  70.0760 274.3303 0024063 289.1646  70.6857 13.97686857132770

Volg THOR AGENA D R/B in realtime met AllMySat

Download on the App Store